• In Netherlands
  • List of Countries
  • For 7 days
  • Water Temperature
  • Satellite Maps
  • Weather Map
  • Weather Widgets
  • user-avatar
    Login

    Hourly Weather La-Plata

    Today, 21 January, Saturday

    Time Temperature Precipitation Wind Pressure Humidity
    00:00 +26°C° 0 mm 5 mps 761 mmHg 59%
    01:00 +26°C° 0 mm 5 mps 761 mmHg 59%
    02:00 +26°C° 0 mm 5 mps 761 mmHg 61%
    03:00 +24°C° 0 mm 6 mps 761 mmHg 61%
    04:00 +24°C° 0 mm 6 mps 761 mmHg 62%
    05:00 +24°C° 0 mm 6 mps 761 mmHg 63%
    06:00 +27°C° 0 mm 6 mps 761 mmHg 57%
    07:00 +29°C° 0 mm 6 mps 762 mmHg 51%
    08:00 +32°C° 0 mm 6 mps 762 mmHg 45%
    09:00 +34°C° 0 mm 6 mps 762 mmHg 39%
    10:00 +36°C° 0 mm 5 mps 761 mmHg 33%
    11:00 +39°C° 0 mm 5 mps 761 mmHg 27%
    12:00 +38°C° 0 mm 4 mps 760 mmHg 25%
    13:00 +40°C° 0 mm 4 mps 760 mmHg 23%
    14:00 +40°C° 0 mm 3 mps 759 mmHg 21%
    15:00 +40°C° 0 mm 4 mps 759 mmHg 22%
    16:00 +40°C° 0 mm 4 mps 759 mmHg 22%
    17:00 +38°C° 0 mm 4 mps 758 mmHg 23%
    18:00 +35°C° 0 mm 4 mps 758 mmHg 31%
    19:00 +33°C° 0 mm 5 mps 758 mmHg 39%
    20:00 +29°C° 0 mm 5 mps 758 mmHg 46%
    21:00 +28°C° 0 mm 5 mps 758 mmHg 50%
    22:00 +28°C° 0 mm 5 mps 759 mmHg 53%
    23:00 +28°C° 0 mm 5 mps 759 mmHg 57%

    Tomorrow, 22 January, Sunday

    Time Temperature Precipitation Wind Pressure Humidity
    00:00 +27°C° 0 mm 6 mps 759 mmHg 56%
    01:00 +27°C° 0 mm 6 mps 759 mmHg 54%
    02:00 +27°C° 0 mm 7 mps 758 mmHg 53%
    03:00 +26°C° 0 mm 7 mps 759 mmHg 56%
    04:00 +26°C° 0 mm 6 mps 759 mmHg 60%
    05:00 +24°C° 0 mm 6 mps 759 mmHg 63%
    06:00 +27°C° 0 mm 5 mps 759 mmHg 57%
    07:00 +29°C° 0 mm 5 mps 759 mmHg 52%
    08:00 +30°C° 0 mm 4 mps 760 mmHg 46%
    09:00 +33°C° 0 mm 4 mps 760 mmHg 41%
    10:00 +35°C° 0 mm 3 mps 759 mmHg 36%
    11:00 +36°C° 0 mm 2 mps 759 mmHg 30%
    12:00 +37°C° 0 mm 3 mps 759 mmHg 28%
    13:00 +38°C° 0 mm 4 mps 758 mmHg 25%
    14:00 +40°C° 0 mm 4 mps 758 mmHg 23%
    15:00 +39°C° 0 mm 5 mps 758 mmHg 22%
    16:00 +38°C° 0 mm 6 mps 757 mmHg 22%
    17:00 +36°C° 0 mm 6 mps 757 mmHg 21%
    18:00 +34°C° 0 mm 6 mps 757 mmHg 28%
    19:00 +32°C° 0 mm 7 mps 757 mmHg 35%
    20:00 +28°C° 0 mm 7 mps 758 mmHg 41%
    21:00 +28°C° 0 mm 6 mps 758 mmHg 46%
    22:00 +27°C° 0 mm 6 mps 759 mmHg 50%
    23:00 +27°C° 0 mm 5 mps 759 mmHg 54%

    Day after tomorrow, 23 January, Monday

    Time Temperature Precipitation Wind Pressure Humidity
    00:00 +27°C° 0 mm 5 mps 759 mmHg 55%
    01:00 +26°C° 0 mm 4 mps 758 mmHg 57%
    02:00 +26°C° 0 mm 4 mps 758 mmHg 58%
    03:00 +26°C° 0 mm 4 mps 758 mmHg 62%
    04:00 +25°C° 0 mm 4 mps 759 mmHg 66%
    05:00 +25°C° 0 mm 3 mps 759 mmHg 70%
    06:00 +26°C° 0 mm 3 mps 759 mmHg 66%
    07:00 +27°C° 0 mm 3 mps 759 mmHg 61%
    08:00 +29°C° 0 mm 3 mps 760 mmHg 57%
    09:00 +30°C° 0 mm 3 mps 759 mmHg 50%
    10:00 +33°C° 0 mm 3 mps 759 mmHg 43%
    11:00 +34°C° 0 mm 3 mps 759 mmHg 36%
    12:00 +35°C° 0 mm 4 mps 758 mmHg 30%
    13:00 +36°C° 0 mm 5 mps 757 mmHg 24%
    14:00 +37°C° 0 mm 5 mps 757 mmHg 18%
    15:00 +38°C° 0 mm 6 mps 756 mmHg 20%
    16:00 +36°C° 0 mm 6 mps 756 mmHg 22%
    17:00 +35°C° 0 mm 7 mps 755 mmHg 25%
    18:00 +33°C° 0 mm 6 mps 755 mmHg 34%
    19:00 +29°C° 0 mm 6 mps 755 mmHg 44%
    20:00 +26°C° 0 mm 6 mps 756 mmHg 54%
    21:00 +26°C° 0 mm 5 mps 756 mmHg 58%
    22:00 +26°C° 0 mm 5 mps 756 mmHg 63%
    23:00 +25°C° 0 mm 4 mps 756 mmHg 67%

    24 January, Tuesday

    Time Temperature Precipitation Wind Pressure Humidity
    00:00 +25°C° 0 mm 5 mps 756 mmHg 65%
    01:00 +25°C° 0 mm 5 mps 755 mmHg 63%
    02:00 +24°C° 0 mm 6 mps 755 mmHg 61%
    03:00 +24°C° 0 mm 6 mps 755 mmHg 65%
    04:00 +24°C° 0 mm 6 mps 755 mmHg 68%
    05:00 +23°C° 0 mm 6 mps 755 mmHg 72%
    06:00 +26°C° 0 mm 6 mps 755 mmHg 65%
    07:00 +28°C° 0 mm 6 mps 755 mmHg 58%
    08:00 +30°C° 0 mm 6 mps 755 mmHg 51%
    09:00 +33°C° 0 mm 5 mps 755 mmHg 45%
    10:00 +34°C° 0 mm 5 mps 755 mmHg 39%
    11:00 +36°C° 0 mm 4 mps 755 mmHg 33%
    12:00 +37°C° 0 mm 4 mps 754 mmHg 30%
    13:00 +38°C° 0 mm 4 mps 754 mmHg 26%
    14:00 +41°C° 0 mm 4 mps 754 mmHg 23%
    15:00 +35°C° 0.5 mm 5 mps 754 mmHg 39%
    16:00 +30°C° 0.5 mm 6 mps 754 mmHg 56%
    17:00 +26°C° 0.5 mm 8 mps 754 mmHg 72%
    18:00 +23°C° 2.9 mm 8 mps 755 mmHg 77%
    19:00 +21°C° 2.9 mm 9 mps 756 mmHg 81%
    20:00 +19°C° 2.9 mm 9 mps 758 mmHg 86%
    21:00 +18°C° 0.2 mm 9 mps 758 mmHg 84%
    22:00 +16°C° 0.2 mm 9 mps 759 mmHg 83%
    23:00 +15°C° 0.2 mm 9 mps 760 mmHg 81%

    25 January, Wednesday

    Time Temperature Precipitation Wind Pressure Humidity
    00:00 +15°C° 0 mm 9 mps 760 mmHg 80%
    01:00 +13°C° 0 mm 9 mps 760 mmHg 78%
    02:00 +12°C° 0 mm 8 mps 760 mmHg 77%
    03:00 +12°C° 0 mm 8 mps 761 mmHg 78%
    04:00 +11°C° 0 mm 7 mps 761 mmHg 80%
    05:00 +11°C° 0 mm 7 mps 761 mmHg 81%
    06:00 +14°C° 0 mm 7 mps 762 mmHg 73%
    07:00 +16°C° 0 mm 7 mps 762 mmHg 65%
    08:00 +18°C° 0 mm 7 mps 762 mmHg 58%
    09:00 +21°C° 0 mm 7 mps 762 mmHg 51%
    10:00 +23°C° 0 mm 6 mps 762 mmHg 43%
    11:00 +26°C° 0 mm 6 mps 762 mmHg 36%
    12:00 +27°C° 0 mm 5 mps 762 mmHg 33%
    13:00 +28°C° 0 mm 5 mps 762 mmHg 31%
    14:00 +28°C° 0 mm 5 mps 761 mmHg 28%
    15:00 +28°C° 0 mm 5 mps 761 mmHg 30%
    16:00 +28°C° 0 mm 6 mps 761 mmHg 31%
    17:00 +27°C° 0 mm 6 mps 761 mmHg 33%
    18:00 +24°C° 0 mm 6 mps 761 mmHg 43%
    19:00 +21°C° 0 mm 6 mps 761 mmHg 53%
    20:00 +19°C° 0 mm 6 mps 761 mmHg 64%
    21:00 +17°C° 0 mm 5 mps 761 mmHg 68%
    22:00 +16°C° 0 mm 5 mps 762 mmHg 71%
    23:00 +17°C° 0 mm 4 mps 762 mmHg 75%

    26 January, Thursday

    Time Temperature Precipitation Wind Pressure Humidity
    00:00 +15°C° 0 mm 4 mps 761 mmHg 78%
    01:00 +16°C° 0 mm 3 mps 761 mmHg 80%
    02:00 +16°C° 0 mm 3 mps 761 mmHg 83%
    03:00 +16°C° 0 mm 3 mps 761 mmHg 84%
    04:00 +14°C° 0 mm 3 mps 761 mmHg 86%
    05:00 +15°C° 0 mm 2 mps 761 mmHg 87%
    06:00 +18°C° 0 mm 2 mps 761 mmHg 78%
    07:00 +20°C° 0 mm 2 mps 762 mmHg 69%
    08:00 +22°C° 0 mm 3 mps 762 mmHg 59%
    09:00 +25°C° 0 mm 2 mps 762 mmHg 52%
    10:00 +27°C° 0 mm 2 mps 762 mmHg 44%
    11:00 +29°C° 0 mm 2 mps 761 mmHg 37%
    12:00 +30°C° 0 mm 2 mps 761 mmHg 34%
    13:00 +31°C° 0 mm 3 mps 760 mmHg 31%
    14:00 +33°C° 0 mm 3 mps 760 mmHg 29%
    15:00 +33°C° 0 mm 3 mps 760 mmHg 29%
    16:00 +33°C° 0 mm 3 mps 759 mmHg 30%
    17:00 +32°C° 0 mm 4 mps 759 mmHg 30%
    18:00 +29°C° 0 mm 4 mps 759 mmHg 35%
    19:00 +26°C° 0 mm 3 mps 759 mmHg 41%
    20:00 +22°C° 0 mm 3 mps 760 mmHg 46%
    21:00 +22°C° 0 mm 4 mps 760 mmHg 46%
    22:00 +22°C° 0 mm 4 mps 760 mmHg 47%
    23:00 +22°C° 0 mm 4 mps 760 mmHg 47%
    Show more